Time,TemperatureF,DewpointF,PressureIn,WindDirection,WindDirectionDegrees,WindSpeedMPH,WindSpeedGustMPH,Humidity,HourlyPrecipIn,Conditions,Clouds,dailyrainin,SoftwareType,DateUTC
2017-04-29 00:05:00,77.0,71.4,30.11,ESE,122,2.0,12.0,83,0.00,,,0.00,Wunderground PWS Mod,2017-04-29 04:05:00,
2017-04-29 00:15:00,77.1,71.5,30.11,ESE,114,3.0,3.0,83,0.00,,,0.00,Wunderground PWS Mod,2017-04-29 04:15:00,
2017-04-29 00:25:00,77.2,72.0,30.11,ESE,110,4.0,4.0,84,0.00,,,0.00,Wunderground PWS Mod,2017-04-29 04:25:00,
2017-04-29 00:30:00,77.1,71.9,30.11,ESE,110,3.0,3.0,84,0.00,,,0.00,Wunderground PWS Mod,2017-04-29 04:30:00,
2017-04-29 00:35:00,77.1,71.9,30.11,ESE,113,1.0,16.0,84,0.00,,,0.00,Wunderground PWS Mod,2017-04-29 04:35:00,
2017-04-29 00:45:00,77.0,71.8,30.11,ESE,114,4.0,4.0,84,0.00,,,0.00,Wunderground PWS Mod,2017-04-29 04:45:00,
2017-04-29 00:55:00,77.0,71.8,30.11,ESE,105,5.0,5.0,84,0.00,,,0.00,Wunderground PWS Mod,2017-04-29 04:55:00,
2017-04-29 01:00:00,77.0,71.8,30.11,ESE,105,5.0,5.0,84,0.00,,,0.00,Wunderground PWS Mod,2017-04-29 05:00:00,
2017-04-29 01:05:00,77.1,71.9,30.11,ESE,105,4.0,12.0,84,0.00,,,0.00,Wunderground PWS Mod,2017-04-29 05:05:00,
2017-04-29 01:15:00,77.0,71.8,30.11,SE,127,3.0,3.0,84,0.00,,,0.00,Wunderground PWS Mod,2017-04-29 05:15:00,
2017-04-29 01:25:00,77.0,71.8,30.09,ESE,108,5.0,5.0,84,0.00,,,0.00,Wunderground PWS Mod,2017-04-29 05:25:00,
2017-04-29 01:30:00,77.0,71.8,30.09,ESE,108,4.0,4.0,84,0.00,,,0.00,Wunderground PWS Mod,2017-04-29 05:30:00,
2017-04-29 01:35:00,77.0,71.8,30.09,ESE,120,4.0,4.0,84,0.00,,,0.00,Wunderground PWS Mod,2017-04-29 05:35:00,
2017-04-29 01:45:00,76.8,71.6,30.09,ESE,115,4.0,4.0,84,0.00,,,0.00,Wunderground PWS Mod,2017-04-29 05:45:00,
2017-04-29 01:55:00,76.7,71.5,30.09,ESE,114,4.0,4.0,84,0.00,,,0.00,Wunderground PWS Mod,2017-04-29 05:55:00,
2017-04-29 02:00:00,76.7,71.5,30.09,ESE,121,4.0,4.0,84,0.00,,,0.00,Wunderground PWS Mod,2017-04-29 06:00:00,
2017-04-29 02:05:00,76.6,71.0,30.09,ESE,115,5.0,14.0,83,0.00,,,0.00,Wunderground PWS Mod,2017-04-29 06:05:00,
2017-04-29 02:15:00,76.7,71.5,30.09,ESE,122,4.0,4.0,84,0.00,,,0.00,Wunderground PWS Mod,2017-04-29 06:15:00,
2017-04-29 02:25:00,76.5,70.9,30.08,ESE,113,5.0,5.0,83,0.00,,,0.00,Wunderground PWS Mod,2017-04-29 06:25:00,
2017-04-29 02:30:00,76.7,71.5,30.08,ESE,115,4.0,15.0,84,0.00,,,0.00,Wunderground PWS Mod,2017-04-29 06:30:00,
2017-04-29 02:35:00,76.7,71.1,30.09,ESE,106,2.0,15.0,83,0.00,,,0.00,Wunderground PWS Mod,2017-04-29 06:35:00,
2017-04-29 02:45:00,76.5,70.9,30.09,ESE,122,5.0,5.0,83,0.00,,,0.00,Wunderground PWS Mod,2017-04-29 06:45:00,
2017-04-29 02:55:00,76.7,71.1,30.08,ESE,105,5.0,5.0,83,0.00,,,0.00,Wunderground PWS Mod,2017-04-29 06:55:00,
2017-04-29 03:00:00,76.7,71.1,30.08,ESE,107,5.0,5.0,83,0.00,,,0.00,Wunderground PWS Mod,2017-04-29 07:00:00,
2017-04-29 03:10:00,76.4,70.5,30.09,SE,126,7.0,16.0,82,0.00,,,0.00,Wunderground PWS Mod,2017-04-29 07:10:00,
2017-04-29 03:15:00,76.5,70.6,30.09,SE,130,7.0,7.0,82,0.00,,,0.00,Wunderground PWS Mod,2017-04-29 07:15:00,
2017-04-29 03:25:00,76.3,70.4,30.09,ESE,122,5.0,15.0,82,0.00,,,0.00,Wunderground PWS Mod,2017-04-29 07:25:00,
2017-04-29 03:30:00,76.4,70.5,30.09,ESE,121,5.0,5.0,82,0.00,,,0.00,Wunderground PWS Mod,2017-04-29 07:30:00,
2017-04-29 03:40:00,76.3,70.4,30.08,SE,124,4.0,13.0,82,0.00,,,0.00,Wunderground PWS Mod,2017-04-29 07:40:00,
2017-04-29 03:45:00,76.2,70.3,30.08,ESE,122,5.0,5.0,82,0.00,,,0.00,Wunderground PWS Mod,2017-04-29 07:45:00,
2017-04-29 03:55:00,76.2,70.3,30.08,ESE,123,4.0,4.0,82,0.00,,,0.00,Wunderground PWS Mod,2017-04-29 07:55:00,
2017-04-29 04:00:00,76.3,70.4,30.08,ESE,105,3.0,14.0,82,0.00,,,0.00,Wunderground PWS Mod,2017-04-29 08:00:00,
2017-04-29 04:10:00,76.1,70.2,30.09,ESE,110,3.0,3.0,82,0.00,,,0.00,Wunderground PWS Mod,2017-04-29 08:10:00,
2017-04-29 04:15:00,76.1,70.2,30.09,ESE,123,4.0,4.0,82,0.00,,,0.00,Wunderground PWS Mod,2017-04-29 08:15:00,
2017-04-29 04:25:00,76.0,70.1,30.09,ESE,117,4.0,4.0,82,0.00,,,0.00,Wunderground PWS Mod,2017-04-29 08:25:00,
2017-04-29 04:30:00,76.0,70.1,30.09,ESE,122,3.0,10.0,82,0.00,,,0.00,Wunderground PWS Mod,2017-04-29 08:30:00,
2017-04-29 04:35:00,75.9,70.0,30.09,ESE,117,5.0,5.0,82,0.00,,,0.00,Wunderground PWS Mod,2017-04-29 08:35:00,
2017-04-29 04:45:00,76.0,70.1,30.09,ESE,108,3.0,14.0,82,0.00,,,0.00,Wunderground PWS Mod,2017-04-29 08:45:00,
2017-04-29 04:55:00,75.9,70.0,30.09,ESE,119,3.0,3.0,82,0.00,,,0.00,Wunderground PWS Mod,2017-04-29 08:55:00,
2017-04-29 05:00:00,75.9,70.0,30.09,ESE,117,3.0,3.0,82,0.00,,,0.00,Wunderground PWS Mod,2017-04-29 09:00:00,
2017-04-29 05:05:00,75.9,70.0,30.09,ESE,112,2.0,2.0,82,0.00,,,0.00,Wunderground PWS Mod,2017-04-29 09:05:00,
2017-04-29 05:15:00,75.9,70.0,30.09,ESE,106,3.0,3.0,82,0.00,,,0.00,Wunderground PWS Mod,2017-04-29 09:15:00,
2017-04-29 05:20:00,75.8,69.9,30.09,ESE,111,3.0,11.0,82,0.00,,,0.00,Wunderground PWS Mod,2017-04-29 09:20:00,
2017-04-29 05:30:00,75.8,70.3,30.09,ESE,112,3.0,14.0,83,0.00,,,0.00,Wunderground PWS Mod,2017-04-29 09:30:00,
2017-04-29 05:35:00,75.8,69.9,30.09,ESE,114,4.0,4.0,82,0.00,,,0.00,Wunderground PWS Mod,2017-04-29 09:35:00,
2017-04-29 05:45:00,75.5,69.6,30.09,SE,129,3.0,3.0,82,0.00,,,0.00,Wunderground PWS Mod,2017-04-29 09:45:00,
2017-04-29 05:55:00,75.4,69.5,30.09,SE,124,4.0,4.0,82,0.00,,,0.00,Wunderground PWS Mod,2017-04-29 09:55:00,
2017-04-29 06:00:00,75.6,69.7,30.09,ESE,108,3.0,3.0,82,0.00,,,0.00,Wunderground PWS Mod,2017-04-29 10:00:00,
2017-04-29 06:05:00,75.5,69.3,30.10,ESE,117,3.0,12.0,81,0.00,,,0.00,Wunderground PWS Mod,2017-04-29 10:05:00,
2017-04-29 06:15:00,75.4,69.2,30.10,ESE,120,4.0,9.0,81,0.00,,,0.00,Wunderground PWS Mod,2017-04-29 10:15:00,
2017-04-29 06:25:00,75.6,69.4,30.10,ESE,113,5.0,5.0,81,0.00,,,0.00,Wunderground PWS Mod,2017-04-29 10:25:00,
2017-04-29 06:30:00,75.6,69.4,30.10,ESE,113,4.0,4.0,81,0.00,,,0.00,Wunderground PWS Mod,2017-04-29 10:30:00,
2017-04-29 06:35:00,75.6,69.4,30.11,ESE,122,4.0,13.0,81,0.00,,,0.00,Wunderground PWS Mod,2017-04-29 10:35:00,
2017-04-29 06:45:00,75.5,69.3,30.11,ESE,115,4.0,13.0,81,0.00,,,0.00,Wunderground PWS Mod,2017-04-29 10:45:00,
2017-04-29 06:55:00,75.5,69.3,30.11,ESE,105,4.0,12.0,81,0.00,,,0.00,Wunderground PWS Mod,2017-04-29 10:55:00,
2017-04-29 07:00:00,75.5,69.3,30.11,East,101,3.0,14.0,81,0.00,,,0.00,Wunderground PWS Mod,2017-04-29 11:00:00,
2017-04-29 07:10:00,75.5,69.3,30.11,ESE,102,5.0,5.0,81,0.00,,,0.00,Wunderground PWS Mod,2017-04-29 11:10:00,
2017-04-29 07:15:00,75.6,69.4,30.11,East,101,4.0,11.0,81,0.00,,,0.00,Wunderground PWS Mod,2017-04-29 11:15:00,
2017-04-29 07:20:00,75.6,69.0,30.12,ESE,108,4.0,4.0,80,0.00,,,0.00,Wunderground PWS Mod,2017-04-29 11:20:00,
2017-04-29 07:25:00,75.7,69.1,30.12,ESE,114,5.0,5.0,80,0.00,,,0.00,Wunderground PWS Mod,2017-04-29 11:25:00,
2017-04-29 07:35:00,75.9,69.3,30.13,ESE,110,3.0,15.0,80,0.00,,,0.00,Wunderground PWS Mod,2017-04-29 11:35:00,
2017-04-29 07:45:00,76.0,69.4,30.13,ESE,108,5.0,11.0,80,0.00,,,0.00,Wunderground PWS Mod,2017-04-29 11:45:00,
2017-04-29 07:50:00,76.1,69.1,30.13,ESE,118,5.0,14.0,79,0.00,,,0.00,Wunderground PWS Mod,2017-04-29 11:50:00,
2017-04-29 07:55:00,76.4,69.8,30.13,ESE,113,5.0,14.0,80,0.00,,,0.00,Wunderground PWS Mod,2017-04-29 11:55:00,
2017-04-29 08:05:00,76.6,69.6,30.14,ESE,111,5.0,5.0,79,0.00,,,0.00,Wunderground PWS Mod,2017-04-29 12:05:00,
2017-04-29 08:15:00,76.8,69.4,30.14,ESE,108,5.0,5.0,78,0.00,,,0.00,Wunderground PWS Mod,2017-04-29 12:15:00,
2017-04-29 08:20:00,77.0,69.6,30.14,SE,131,5.0,12.0,78,0.00,,,0.00,Wunderground PWS Mod,2017-04-29 12:20:00,
2017-04-29 08:25:00,76.9,69.1,30.14,ESE,112,5.0,12.0,77,0.00,,,0.00,Wunderground PWS Mod,2017-04-29 12:25:00,
2017-04-29 08:35:00,77.2,69.8,30.14,ESE,118,5.0,5.0,78,0.00,,,0.00,Wunderground PWS Mod,2017-04-29 12:35:00,
2017-04-29 08:40:00,77.5,70.1,30.14,ESE,107,3.0,14.0,78,0.00,,,0.00,Wunderground PWS Mod,2017-04-29 12:40:00,
2017-04-29 08:50:00,77.7,70.3,30.14,SE,124,4.0,14.0,78,0.00,,,0.00,Wunderground PWS Mod,2017-04-29 12:50:00,
2017-04-29 09:00:00,78.0,70.2,30.14,ESE,118,3.0,13.0,77,0.00,,,0.00,Wunderground PWS Mod,2017-04-29 13:00:00,
2017-04-29 09:05:00,77.7,69.5,30.14,ESE,120,4.0,13.0,76,0.00,,,0.00,Wunderground PWS Mod,2017-04-29 13:05:00,
2017-04-29 09:10:00,78.1,69.9,30.14,ESE,123,5.0,5.0,76,0.00,,,0.00,Wunderground PWS Mod,2017-04-29 13:10:00,
2017-04-29 09:15:00,78.5,70.3,30.14,ESE,117,4.0,14.0,76,0.00,,,0.00,Wunderground PWS Mod,2017-04-29 13:15:00,
2017-04-29 09:25:00,78.9,70.3,30.14,ESE,103,4.0,12.0,75,0.00,,,0.00,Wunderground PWS Mod,2017-04-29 13:25:00,
2017-04-29 09:35:00,79.2,70.2,30.14,ESE,115,5.0,5.0,74,0.00,,,0.00,Wunderground PWS Mod,2017-04-29 13:35:00,
2017-04-29 09:40:00,79.7,70.7,30.14,ESE,106,3.0,13.0,74,0.00,,,0.00,Wunderground PWS Mod,2017-04-29 13:40:00,
2017-04-29 09:45:00,79.7,70.3,30.14,East,101,3.0,3.0,73,0.00,,,0.00,Wunderground PWS Mod,2017-04-29 13:45:00,
2017-04-29 09:55:00,79.9,70.5,30.14,ESE,103,5.0,5.0,73,0.00,,,0.00,Wunderground PWS Mod,2017-04-29 13:55:00,
2017-04-29 10:00:00,80.1,70.3,30.14,ESE,111,4.0,4.0,72,0.00,,,0.00,Wunderground PWS Mod,2017-04-29 14:00:00,
2017-04-29 10:10:00,80.5,70.6,30.15,ESE,103,5.0,5.0,72,0.00,,,0.00,Wunderground PWS Mod,2017-04-29 14:10:00,
2017-04-29 10:15:00,80.6,69.9,30.15,ESE,115,4.0,13.0,70,0.00,,,0.00,Wunderground PWS Mod,2017-04-29 14:15:00,
2017-04-29 10:20:00,80.8,70.5,30.16,SE,131,4.0,14.0,71,0.00,,,0.00,Wunderground PWS Mod,2017-04-29 14:20:00,
2017-04-29 10:30:00,81.5,70.8,30.16,ESE,117,4.0,4.0,70,0.00,,,0.00,Wunderground PWS Mod,2017-04-29 14:30:00,
2017-04-29 10:35:00,81.7,70.5,30.16,ESE,112,3.0,3.0,69,0.00,,,0.00,Wunderground PWS Mod,2017-04-29 14:35:00,
2017-04-29 10:45:00,81.8,70.6,30.16,ESE,117,4.0,15.0,69,0.00,,,0.00,Wunderground PWS Mod,2017-04-29 14:45:00,
2017-04-29 10:50:00,82.1,70.9,30.16,SE,130,3.0,3.0,69,0.00,,,0.00,Wunderground PWS Mod,2017-04-29 14:50:00,
2017-04-29 11:00:00,83.3,71.2,30.16,ESE,117,2.0,13.0,67,0.00,,,0.00,Wunderground PWS Mod,2017-04-29 15:00:00,
2017-04-29 11:05:00,83.2,71.1,30.16,ESE,120,3.0,13.0,67,0.00,,,0.00,Wunderground PWS Mod,2017-04-29 15:05:00,
2017-04-29 11:15:00,83.9,71.3,30.16,ESE,104,2.0,13.0,66,0.00,,,0.00,Wunderground PWS Mod,2017-04-29 15:15:00,
2017-04-29 11:20:00,83.5,70.5,30.16,ESE,110,3.0,10.0,65,0.00,,,0.00,Wunderground PWS Mod,2017-04-29 15:20:00,
2017-04-29 11:30:00,83.6,70.6,30.16,ESE,113,4.0,4.0,65,0.00,,,0.00,Wunderground PWS Mod,2017-04-29 15:30:00,
2017-04-29 11:35:00,83.8,70.8,30.16,ESE,110,4.0,4.0,65,0.00,,,0.00,Wunderground PWS Mod,2017-04-29 15:35:00,
2017-04-29 11:45:00,83.6,70.6,30.16,ESE,114,4.0,4.0,65,0.00,,,0.00,Wunderground PWS Mod,2017-04-29 15:45:00,
2017-04-29 11:50:00,83.6,70.6,30.16,ESE,105,4.0,14.0,65,0.00,,,0.00,Wunderground PWS Mod,2017-04-29 15:50:00,
2017-04-29 12:00:00,83.8,71.2,30.16,ESE,111,4.0,12.0,66,0.00,,,0.00,Wunderground PWS Mod,2017-04-29 16:00:00,
2017-04-29 12:05:00,83.5,70.9,30.16,ESE,112,4.0,12.0,66,0.00,,,0.00,Wunderground PWS Mod,2017-04-29 16:05:00,
2017-04-29 12:15:00,83.1,70.6,30.16,ESE,114,5.0,5.0,66,0.00,,,0.00,Wunderground PWS Mod,2017-04-29 16:15:00,
2017-04-29 12:25:00,83.2,70.7,30.15,ESE,117,5.0,5.0,66,0.00,,,0.00,Wunderground PWS Mod,2017-04-29 16:25:00,
2017-04-29 12:30:00,84.0,71.0,30.15,ESE,113,4.0,4.0,65,0.00,,,0.00,Wunderground PWS Mod,2017-04-29 16:30:00,
2017-04-29 12:40:00,84.7,71.2,30.15,ESE,103,2.0,2.0,64,0.00,,,0.00,Wunderground PWS Mod,2017-04-29 16:40:00,
2017-04-29 12:45:00,85.1,71.1,30.15,ESE,103,3.0,3.0,63,0.00,,,0.00,Wunderground PWS Mod,2017-04-29 16:45:00,
2017-04-29 12:50:00,84.9,70.9,30.15,ESE,108,4.0,4.0,63,0.00,,,0.00,Wunderground PWS Mod,2017-04-29 16:50:00,
2017-04-29 12:55:00,84.6,70.6,30.15,ESE,115,4.0,12.0,63,0.00,,,0.00,Wunderground PWS Mod,2017-04-29 16:55:00,
2017-04-29 13:05:00,85.3,71.3,30.14,ESE,112,5.0,13.0,63,0.00,,,0.00,Wunderground PWS Mod,2017-04-29 17:05:00,
2017-04-29 13:15:00,85.5,71.5,30.14,ESE,109,5.0,5.0,63,0.00,,,0.00,Wunderground PWS Mod,2017-04-29 17:15:00,
2017-04-29 13:20:00,85.7,70.7,30.14,ESE,113,5.0,5.0,61,0.00,,,0.00,Wunderground PWS Mod,2017-04-29 17:20:00,
2017-04-29 13:25:00,86.1,71.6,30.14,ESE,105,2.0,15.0,62,0.00,,,0.00,Wunderground PWS Mod,2017-04-29 17:25:00,
2017-04-29 13:35:00,86.0,70.5,30.14,East,101,6.0,6.0,60,0.00,,,0.00,Wunderground PWS Mod,2017-04-29 17:35:00,
2017-04-29 13:40:00,85.9,70.4,30.14,ESE,109,6.0,6.0,60,0.00,,,0.00,Wunderground PWS Mod,2017-04-29 17:40:00,
2017-04-29 13:50:00,84.5,69.6,30.14,ESE,105,4.0,4.0,61,0.00,,,0.00,Wunderground PWS Mod,2017-04-29 17:50:00,
2017-04-29 13:55:00,84.1,69.7,30.14,ESE,122,4.0,15.0,62,0.00,,,0.00,Wunderground PWS Mod,2017-04-29 17:55:00,
2017-04-29 14:05:00,84.8,71.3,30.14,ESE,121,3.0,14.0,64,0.00,,,0.00,Wunderground PWS Mod,2017-04-29 18:05:00,
2017-04-29 14:10:00,85.3,70.8,30.14,ESE,115,3.0,3.0,62,0.00,,,0.00,Wunderground PWS Mod,2017-04-29 18:10:00,
2017-04-29 14:20:00,85.6,71.1,30.14,ESE,105,3.0,12.0,62,0.00,,,0.00,Wunderground PWS Mod,2017-04-29 18:20:00,
2017-04-29 14:30:00,86.2,71.2,30.14,ESE,110,3.0,14.0,61,0.00,,,0.00,Wunderground PWS Mod,2017-04-29 18:30:00,
2017-04-29 14:35:00,86.4,71.4,30.14,ESE,113,4.0,4.0,61,0.00,,,0.00,Wunderground PWS Mod,2017-04-29 18:35:00,
2017-04-29 14:45:00,86.2,71.2,30.14,ESE,108,3.0,3.0,61,0.00,,,0.00,Wunderground PWS Mod,2017-04-29 18:45:00,
2017-04-29 14:50:00,85.3,70.3,30.13,ESE,120,3.0,3.0,61,0.00,,,0.00,Wunderground PWS Mod,2017-04-29 18:50:00,
2017-04-29 14:55:00,85.3,70.8,30.13,ESE,103,3.0,3.0,62,0.00,,,0.00,Wunderground PWS Mod,2017-04-29 18:55:00,
2017-04-29 15:05:00,85.9,71.8,30.13,ESE,110,3.0,13.0,63,0.00,,,0.00,Wunderground PWS Mod,2017-04-29 19:05:00,
2017-04-29 15:10:00,85.3,70.8,30.13,ESE,112,4.0,4.0,62,0.00,,,0.00,Wunderground PWS Mod,2017-04-29 19:10:00,
2017-04-29 15:20:00,86.5,71.0,30.13,ESE,107,3.0,3.0,60,0.00,,,0.00,Wunderground PWS Mod,2017-04-29 19:20:00,
2017-04-29 15:30:00,84.6,70.6,30.13,ESE,103,5.0,5.0,63,0.00,,,0.00,Wunderground PWS Mod,2017-04-29 19:30:00,
2017-04-29 15:35:00,84.6,70.6,30.12,SE,135,4.0,14.0,63,0.00,,,0.00,Wunderground PWS Mod,2017-04-29 19:35:00,
2017-04-29 15:40:00,85.1,71.5,30.12,ESE,112,3.0,3.0,64,0.00,,,0.00,Wunderground PWS Mod,2017-04-29 19:40:00,
2017-04-29 15:45:00,86.5,71.9,30.12,East,97,2.0,12.0,62,0.00,,,0.00,Wunderground PWS Mod,2017-04-29 19:45:00,
2017-04-29 15:55:00,84.3,70.3,30.11,ESE,105,6.0,6.0,63,0.00,,,0.00,Wunderground PWS Mod,2017-04-29 19:55:00,
2017-04-29 16:05:00,84.0,70.5,30.11,ESE,108,4.0,14.0,64,0.00,,,0.00,Wunderground PWS Mod,2017-04-29 20:05:00,
2017-04-29 16:10:00,85.0,71.0,30.11,ESE,110,4.0,4.0,63,0.00,,,0.00,Wunderground PWS Mod,2017-04-29 20:10:00,
2017-04-29 16:15:00,84.7,70.7,30.11,ESE,105,4.0,4.0,63,0.00,,,0.00,Wunderground PWS Mod,2017-04-29 20:15:00,
2017-04-29 16:25:00,85.5,71.0,30.11,ESE,113,2.0,2.0,62,0.00,,,0.00,Wunderground PWS Mod,2017-04-29 20:25:00,
2017-04-29 16:35:00,84.2,70.7,30.10,ESE,109,4.0,4.0,64,0.00,,,0.00,Wunderground PWS Mod,2017-04-29 20:35:00,
2017-04-29 16:40:00,84.6,71.1,30.10,ESE,113,3.0,3.0,64,0.00,,,0.00,Wunderground PWS Mod,2017-04-29 20:40:00,
2017-04-29 16:45:00,84.3,70.8,30.10,SE,125,2.0,14.0,64,0.00,,,0.00,Wunderground PWS Mod,2017-04-29 20:45:00,
2017-04-29 16:55:00,83.3,70.3,30.09,ESE,102,5.0,5.0,65,0.00,,,0.00,Wunderground PWS Mod,2017-04-29 20:55:00,
2017-04-29 17:05:00,83.0,70.5,30.09,ESE,110,3.0,16.0,66,0.00,,,0.00,Wunderground PWS Mod,2017-04-29 21:05:00,
2017-04-29 17:10:00,82.6,71.0,30.09,ESE,113,3.0,14.0,68,0.00,,,0.00,Wunderground PWS Mod,2017-04-29 21:10:00,
2017-04-29 17:15:00,82.4,70.8,30.09,ESE,108,3.0,3.0,68,0.00,,,0.00,Wunderground PWS Mod,2017-04-29 21:15:00,
2017-04-29 17:25:00,82.1,71.3,30.09,ESE,120,2.0,14.0,70,0.00,,,0.00,Wunderground PWS Mod,2017-04-29 21:25:00,
2017-04-29 17:35:00,82.0,70.8,30.09,ESE,118,3.0,10.0,69,0.00,,,0.00,Wunderground PWS Mod,2017-04-29 21:35:00,